Mitchell, SD

11:59 AM CDT on September 15, 2019 (GMT -0500)
Mitchell Municipal

Weather History for KMHE - May, 2019

Change the Weather History Date:

Friday, May 31, 2019

  Actual Average Record
Temperature  
Mean Temperature 75 °F 64 °F  
Max Temperature 87 °F 75 °F 103 °F (1934)
Min Temperature 62 °F 53 °F 31 °F (1946)
Degree Days  
Heating Degree Days 0 3  
Month to date heating degree days 291 209  
Since 1 July heating degree days 7979 7210  
Cooling Degree Days 10 2  
Month to date cooling degree days 19 38  
Year to date cooling degree days 19 40  
Growing Degree Days 24 (Base 50)    
Moisture  
Dew Point 55 °F    
Average Humidity 54    
Maximum Humidity 78    
Minimum Humidity 29    
Precipitation  
Precipitation 0.03 in 0.15 in 1.04 in (1967)
Month to date precipitation 4.26 2.93  
Year to date precipitation 11.84 6.73  
Snow  
Snow 0.00 in - 0.00 in ()
Month to date snowfall 0.0  
Since 1 July snowfall 67.6  
Snow Depth 0.00 in    
Sea Level Pressure  
Sea Level Pressure 29.85 in    
Wind  
Wind Speed 9 mph (WSW)    
Max Wind Speed 26 mph    
Max Gust Speed 39 mph    
Visibility 10 miles    
Events Rain    
T = Trace of Precipitation, MM = Missing Value Source: NWS Daily Summary

Daily Weather History Graph

Daily Weather History Graph

Search for Another Location

Airport or City:

Astronomy

May. 31, 2019 Rise Set
Actual Time 5:53 AM CDT 9:06 PM CDT
Civil Twilight 5:18 AM CDT 9:41 PM CDT
Nautical Twilight 4:33 AM CDT 10:26 PM CDT
Astronomical Twilight 3:38 AM CDT 11:22 PM CDT
Moon 4:36 AM CDT (5/31) 6:10 PM CDT (5/31)
Length of Visible Light 16h 22m
Length of Day
15h 12m
Waning Crescent, 8% of the Moon is Illuminated
May 31
Waning Crescent
Jun 3
New
Jun 10
First Quarter
Jun 17
Full
Jun 25
Last Quarter

Hourly Weather History & Observations

Time (CDT) Temp. Heat Index Dew Point Humidity Pressure Visibility Wind Dir Wind Speed Gust Speed Precip Events Conditions
12:53 AM 66.9 °F - 57.0 °F 70% 29.86 in 10.0 mi West 8.1 mph - N/A   Clear
1:53 AM 66.0 °F - 57.0 °F 73% 29.86 in 10.0 mi West 9.2 mph - N/A   Clear
2:53 AM 64.9 °F - 57.0 °F 75% 29.86 in 10.0 mi West 8.1 mph - N/A   Clear
3:53 AM 64.0 °F - 57.0 °F 78% 29.87 in 9.0 mi West 9.2 mph - N/A   Clear
4:53 AM 63.0 °F - 55.9 °F 78% 29.87 in 9.0 mi WSW 6.9 mph - N/A   Clear
5:53 AM 62.1 °F - 55.9 °F 80% 29.89 in 8.0 mi WSW 6.9 mph - N/A   Clear
6:53 AM 63.0 °F - 55.9 °F 78% 29.90 in 9.0 mi WSW 10.4 mph - N/A   Clear
7:53 AM 64.9 °F - 57.0 °F 75% 29.91 in 10.0 mi West 8.1 mph - N/A   Clear
8:53 AM 68.0 °F - 57.0 °F 68% 29.90 in 10.0 mi WSW 5.8 mph - N/A   Clear
9:53 AM 73.0 °F - 57.9 °F 59% 29.90 in 10.0 mi WSW 6.9 mph - N/A   Clear
10:53 AM 77.0 °F - 60.1 °F 56% 29.89 in 10.0 mi West 9.2 mph - N/A   Clear
11:53 AM 82.0 °F 82.1 °F 59.0 °F 45% 29.88 in 10.0 mi West 6.9 mph - N/A   Clear
12:53 PM 82.9 °F 82.8 °F 59.0 °F 44% 29.87 in 10.0 mi West 11.5 mph - N/A   Clear
1:53 PM 84.0 °F 83.0 °F 55.9 °F 38% 29.85 in 10.0 mi West 12.7 mph - N/A   Clear
2:53 PM 84.9 °F 83.7 °F 55.9 °F 37% 29.84 in 10.0 mi West 8.1 mph - N/A   Clear
3:53 PM 87.1 °F - 51.1 °F 29% 29.82 in 10.0 mi WSW 11.5 mph 19.6 mph N/A   Clear
4:53 PM 86.0 °F - 50.0 °F 29% 29.80 in 10.0 mi SW 10.4 mph - N/A   Clear
5:53 PM 84.9 °F 83.2 °F 53.1 °F 33% 29.79 in 10.0 mi SW 8.1 mph - N/A   Clear
6:53 PM 82.0 °F - 52.0 °F 35% 29.77 in 10.0 mi SW 6.9 mph - N/A   Clear
7:53 PM 77.0 °F - 55.9 °F 48% 29.77 in 10.0 mi SSW 4.6 mph - N/A   Clear
8:53 PM 73.0 °F - 52.0 °F 48% 29.79 in 10.0 mi West 11.5 mph 21.9 mph N/A   Clear
9:53 PM 73.0 °F - 48.9 °F 42% 29.80 in 10.0 mi WNW 19.6 mph 33.4 mph N/A   Clear
10:53 PM 64.9 °F - 53.1 °F 65% 29.86 in 10.0 mi WNW 12.7 mph 25.3 mph 0.00 in Rain Light Rain
11:53 PM 62.1 °F - 55.9 °F 80% 29.85 in 10.0 mi North 15.0 mph 20.7 mph 0.02 in Rain Light Rain